Regional Weather Roundup
Issued by NWS Jackson, KY

Home | Current Version | Previous Version | Text Only | Print | Product List | Glossary Off
Versions: 1 2 3 4 5 6 7 8 9 10 11 12 13 14 15 16 17 18 19 20 21 22 23 24 25 26 27 28 29 30 31 32 33 34 35 36 37 38 39 40 41 42 43 44 45 46 47 48 49 50

000
ASUS43 KJKL 042010
RWRJKL

EAST KENTUCKY HOURLY WEATHER ROUNDUP
NATIONAL WEATHER SERVICE JACKSON KY
400 PM EDT SAT JUL 04 2015

NOTE: "FAIR" INDICATES FEW OR NO CLOUDS BELOW 12,000 FEET WITH
NO SIGNIFICANT WEATHER AND/OR OBSTRUCTIONS TO VISIBILITY.

* THESE REPORTS ARE NOT UNDER NWS QUALITY CONTROL AND MAY NOT
  REPORT WEATHER SUCH AS PRECIPITATION AND FOG.

KYZ079-080-083-085-087-088-110-112-115-119-120-042100
...EASTERN KENTUCKY...

CITY           SKY/WX    TMP DP  RH WIND       PRES   REMARKS
JACKSON        CLOUDY    76  67  73 CALM      30.03S
LONDON         CLOUDY    80  66  62 W7        30.02S
SOMERSET*      PTSUNNY   77  64  65 W5        30.02S
MONTICELLO*    CLOUDY    81  71  71 W3        30.03F
MIDDLESBORO*   CLOUDY    79  67  66 W3        30.02S
HARLAN APT*      N/A     79  64  61 CALM      30.03S
HAZARD APT*    LGT RAIN  75  70  83 CALM      30.02R
BLACK MTN*       N/A     70  63  78 E2          N/A
PIKEVILLE APT* PTSUNNY   73  68  83 N5        30.03F
BIG SANDY*     CLOUDY    75  70  83 CALM      30.03S
MOREHEAD APT*  CLOUDY    77  64  65 VRB5      30.04S
$$

KYZ035-036-041-042-044-050-067-078-099-042100
...CENTRAL KENTUCKY...

CITY           SKY/WX    TMP DP  RH WIND       PRES   REMARKS
MT STERLING*   PTSUNNY   79  66  65 N6        30.03S
FLEMING/MASON* MOSUNNY   81  66  61 W3        30.03F
DANVILLE*      CLOUDY    79  66  65 N6        30.02F
RICHMOND*      CLOUDY    79  66  65 NW3       30.01F
LEXINGTON      PTSUNNY   80  65  59 VRB3      30.01F
FRANKFORT      PTSUNNY   80  65  59 CALM      30.00S
$$

KYZ091>093-OHZ055-061-077-WVZ005-015-034-035-042-042100
...SOUTHERN OHIO/WEST VIRGINIA...

CITY           SKY/WX    TMP DP  RH WIND       PRES   REMARKS
COVINGTON      PTSUNNY   80  63  55 NW5       30.02S
COLUMBUS       MOSUNNY   79  56  45 NW6       29.99F
DAYTON         MOSUNNY   79  59  50 NW7       30.03S
WILMINGTON     SUNNY     78  55  44 SW6       30.02S
HUNTINGTON     CLOUDY    76  66  71 CALM      30.00R
CHARLESTON     PTSUNNY   80  65  59 CALM      30.00S
PINEVILLE*     CLOUDY    76  69  79 MISG      30.08F
BECKLEY        CLOUDY    71  63  75 NW3       30.07S
BLUEFIELD      LGT RAIN  73  62  68 VRB3      30.08S
$$

VAZ002-007-008-TNZ017-027-036-066-071-042100
...SOUTHWEST VIRGINIA/EAST TENNESSEE...

CITY           SKY/WX    TMP DP  RH WIND       PRES   REMARKS
WISE*          CLOUDY    73  63  68 N7        30.09S
JONESVILLE*      N/A    N/A N/A N/A MISG        N/A
ABINGDON*      PTSUNNY   78  68  72 W9        30.06S
BRISTOL        PTSUNNY   79  67  66 SW12      30.03S
KNOXVILLE      CLOUDY    76  68  76 SW14      30.02S
OAK RIDGE      CLOUDY    80  69  69 VRB6      30.02S
CROSSVILLE     CLOUDY    76  66  71 W6        30.06S
NASHVILLE      LGT RAIN  73  72  94 NW5       29.99F
$$

...KEY TO REMARKS...
VSB - VISIBILITY IN MILES
WCI - WIND CHILL INDEX
HX  - HEAT INDEX

$$



USA.gov is the U.S. government's official web portal to all federal, state and local government web resources and services.